Change the Weather History Date:

Thursday, May 2, 2013

  Actual Average (KFAR) Record (KFAR)
Temperature  
Mean Temperature 32 °F 52 °F  
Max Temperature 39 °F 65 °F 95 °F (1959)
Min Temperature 26 °F 40 °F 17 °F (1907)
Degree Days  
Heating Degree Days 32 13  
Month to date heating degree days 26  
Since 1 July heating degree days 8482  
Cooling Degree Days 0 0  
Month to date cooling degree days 0  
Year to date cooling degree days 3  
Moisture  
Dew Point 27 °F    
Average Humidity 81    
Maximum Humidity 100    
Minimum Humidity 61    
Precipitation  
Precipitation 0.00 in 0.08 in 0.91 in (1927)
Month to date precipitation 0.15  
Year to date precipitation 4.15  
Snow  
Snow 0.00 in 0.00 in 5.10 in (1935)
Month to date snowfall 0.0  
Since 1 July snowfall 50.4  
Snow Depth -    
Sea Level Pressure  
Sea Level Pressure 30.63 in    
Wind  
Wind Speed 7 mph (North)    
Max Wind Speed 18 mph    
Max Gust Speed 25 mph    
Visibility 10 miles    
Events      
T = Trace of Precipitation, MM = Missing Value Source: NWS Daily Summary

Daily Weather History Graph

Daily Weather History Graph

Search for Another Location

Airport or City:

Trip Planner

Search our weather history database for the weather conditions in past years. The results will help you decide how hot, cold, wet, or windy it might be!

Date:

Astronomy

May. 02, 2013 Rise Set
Actual Time 6:09 AM CDT 8:38 PM CDT
Civil Twilight 5:35 AM CDT 9:12 PM CDT
Nautical Twilight 4:53 AM CDT 9:55 PM CDT
Astronomical Twilight 4:04 AM CDT 10:44 PM CDT
Moon 2:25 AM CDT (5/2) 1:02 PM CDT (5/2)
Length of Visible Light 15h 37m
Length of Day
14h 29m
Waning Gibbous, 47% of the Moon is Illuminated
May 2
Waning Gibbous
May 9
New
May 17
First Quarter
May 24
Full
May 31
Last Quarter

Hourly Weather History & Observations

Time (CDT) Temp. Windchill Dew Point Humidity Pressure Visibility Wind Dir Wind Speed Gust Speed Precip Events Conditions
12:15 AM 32.0 °F - 28.4 °F 87% 30.59 in 10.0 mi Calm Calm - N/A   Clear
12:35 AM 32.0 °F 28.7 °F 28.4 °F 87% 30.59 in 10.0 mi NE 3.5 mph - N/A   Clear
12:54 AM 28.4 °F - 28.4 °F 100% 30.60 in 10.0 mi Calm Calm - N/A   Clear
1:15 AM 28.4 °F - 28.4 °F 100% 30.60 in 10.0 mi Calm Calm - N/A   Clear
1:35 AM 28.4 °F - 28.4 °F 100% 30.61 in 10.0 mi Calm Calm - N/A   Clear
1:54 AM 28.4 °F 24.6 °F 28.4 °F 100% 30.61 in 10.0 mi NNW 3.5 mph - N/A   Clear
2:15 AM 28.4 °F - 28.4 °F 100% 30.62 in 10.0 mi Calm Calm - N/A   Clear
2:35 AM 28.4 °F 22.2 °F 28.4 °F 100% 30.62 in 10.0 mi NNW 5.8 mph - N/A   Clear
2:54 AM 28.4 °F - 28.4 °F 100% 30.63 in 10.0 mi Calm Calm - N/A   Clear
3:15 AM 28.4 °F 23.3 °F 28.4 °F 100% 30.62 in 10.0 mi North 4.6 mph - N/A   Clear
3:35 AM 28.4 °F - 28.4 °F 100% 30.62 in 10.0 mi Calm Calm - N/A   Clear
3:54 AM 28.4 °F 23.3 °F 28.4 °F 100% 30.62 in 10.0 mi North 4.6 mph - N/A   Clear
4:15 AM 28.4 °F 23.3 °F 28.4 °F 100% 30.64 in 10.0 mi North 4.6 mph - N/A   Clear
4:35 AM 26.6 °F 21.2 °F 26.6 °F 100% 30.64 in 10.0 mi North 4.6 mph - N/A   Clear
4:54 AM 28.4 °F 23.3 °F 28.4 °F 100% 30.64 in 10.0 mi North 4.6 mph - N/A   Clear
5:15 AM 26.6 °F 21.2 °F 26.6 °F 100% 30.64 in 10.0 mi North 4.6 mph - N/A   Clear
5:35 AM 26.6 °F 20.0 °F 26.6 °F 100% 30.65 in 10.0 mi North 5.8 mph - N/A   Clear
5:54 AM 28.4 °F 21.2 °F 28.4 °F 100% 30.65 in 10.0 mi NNE 6.9 mph - N/A   Clear
6:15 AM 28.4 °F 22.2 °F 28.4 °F 100% 30.67 in 10.0 mi North 5.8 mph - N/A   Clear
6:35 AM 26.6 °F 21.2 °F 26.6 °F 100% 30.66 in 10.0 mi North 4.6 mph - N/A   Clear
6:54 AM 28.4 °F 24.6 °F 28.4 °F 100% 30.67 in 10.0 mi North 3.5 mph - N/A   Clear
7:15 AM 28.4 °F 24.6 °F 28.4 °F 100% 30.68 in 10.0 mi North 3.5 mph - N/A   Clear
7:34 AM 30.2 °F 24.3 °F 28.4 °F 93% 30.68 in 10.0 mi NNW 5.8 mph - N/A   Scattered Clouds
7:55 AM 30.2 °F 25.4 °F 28.4 °F 93% 30.69 in 10.0 mi North 4.6 mph - N/A   Mostly Cloudy
8:15 AM 30.2 °F 23.4 °F 28.4 °F 93% 30.70 in 10.0 mi North 6.9 mph - N/A   Scattered Clouds
8:35 AM 32.0 °F 24.2 °F 28.4 °F 87% 30.70 in 10.0 mi North 9.2 mph - N/A   Mostly Cloudy
8:55 AM 32.0 °F 23.0 °F 28.4 °F 87% 30.71 in 10.0 mi North 11.5 mph - N/A   Mostly Cloudy
9:14 AM 33.8 °F 24.8 °F 28.4 °F 81% 30.71 in 10.0 mi North 12.7 mph - N/A   Mostly Cloudy
9:35 AM 33.8 °F 24.8 °F 26.6 °F 75% 30.71 in 10.0 mi NNE 12.7 mph - N/A   Mostly Cloudy
9:55 AM 33.8 °F 25.3 °F 26.6 °F 75% 30.70 in 10.0 mi North 11.5 mph - N/A   Overcast
10:14 AM 33.8 °F 24.3 °F 28.4 °F 81% 30.70 in 10.0 mi North 13.8 mph - N/A   Overcast
10:35 AM 33.8 °F 25.3 °F 28.4 °F 81% 30.70 in 10.0 mi North 11.5 mph - N/A   Overcast
10:55 AM 35.6 °F 26.6 °F 26.6 °F 70% 30.69 in 10.0 mi North 13.8 mph - N/A   Overcast
11:14 AM 35.6 °F 26.2 °F 26.6 °F 70% 30.69 in 10.0 mi North 15.0 mph - N/A   Overcast
11:35 AM 35.6 °F 26.2 °F 28.4 °F 75% 30.69 in 10.0 mi NNE 15.0 mph 19.6 mph N/A   Overcast
11:55 AM 35.6 °F 25.9 °F 26.6 °F 70% 30.68 in 10.0 mi NNE 16.1 mph 20.7 mph N/A   Overcast
12:14 PM 35.6 °F 26.6 °F 26.6 °F 70% 30.68 in 10.0 mi NNE 13.8 mph 19.6 mph N/A   Overcast
12:35 PM 35.6 °F 26.6 °F 26.6 °F 70% 30.68 in 10.0 mi North 13.8 mph 20.7 mph N/A   Overcast
12:55 PM 35.6 °F 26.6 °F 26.6 °F 70% 30.67 in 10.0 mi North 13.8 mph 18.4 mph N/A   Overcast
1:14 PM 35.6 °F 26.2 °F 26.6 °F 70% 30.66 in 10.0 mi NNE 15.0 mph - N/A   Overcast
1:35 PM 35.6 °F 26.6 °F 26.6 °F 70% 30.65 in 10.0 mi NNE 13.8 mph 19.6 mph N/A   Overcast
1:55 PM 37.4 °F 28.5 °F 26.6 °F 65% 30.65 in 10.0 mi NNE 15.0 mph 21.9 mph N/A   Overcast
2:14 PM 37.4 °F 28.9 °F 26.6 °F 65% 30.64 in 10.0 mi North 13.8 mph - N/A   Overcast
2:35 PM 37.4 °F 28.2 °F 26.6 °F 65% 30.64 in 10.0 mi North 16.1 mph 20.7 mph N/A   Overcast
2:54 PM 37.4 °F 28.2 °F 26.6 °F 65% 30.63 in 10.0 mi North 16.1 mph - N/A   Overcast
3:15 PM 37.4 °F 27.8 °F 26.6 °F 65% 30.63 in 10.0 mi NNE 17.3 mph 21.9 mph N/A   Overcast
3:35 PM 37.4 °F 27.5 °F 28.4 °F 70% 30.62 in 10.0 mi NNE 18.4 mph 23.0 mph N/A   Overcast
3:54 PM 37.4 °F 28.2 °F 26.6 °F 65% 30.61 in 10.0 mi North 16.1 mph 23.0 mph N/A   Overcast
4:15 PM 39.2 °F 31.2 °F 26.6 °F 61% 30.60 in 10.0 mi North 13.8 mph 21.9 mph N/A   Mostly Cloudy
4:35 PM 37.4 °F 29.3 °F 26.6 °F 65% 30.60 in 10.0 mi North 12.7 mph 25.3 mph N/A   Mostly Cloudy
4:54 PM 37.4 °F 28.2 °F 26.6 °F 65% 30.60 in 10.0 mi North 16.1 mph - N/A   Mostly Cloudy
5:15 PM 37.4 °F 27.5 °F 26.6 °F 65% 30.59 in 10.0 mi NNE 18.4 mph 23.0 mph N/A   Mostly Cloudy
5:35 PM 37.4 °F 27.8 °F 26.6 °F 65% 30.60 in 10.0 mi NNE 17.3 mph - N/A   Mostly Cloudy
5:54 PM 37.4 °F 27.8 °F 26.6 °F 65% 30.59 in 10.0 mi NNE 17.3 mph - N/A   Mostly Cloudy
6:15 PM 37.4 °F 28.9 °F 26.6 °F 65% 30.59 in 10.0 mi NNE 13.8 mph - N/A   Scattered Clouds
6:35 PM 35.6 °F 26.2 °F 26.6 °F 70% 30.59 in 10.0 mi NNE 15.0 mph - N/A   Scattered Clouds
6:54 PM 35.6 °F 25.5 °F 26.6 °F 70% 30.58 in 10.0 mi NNE 17.3 mph - N/A   Scattered Clouds
7:15 PM 35.6 °F 26.2 °F 26.6 °F 70% 30.59 in 10.0 mi North 15.0 mph - N/A   Clear
7:35 PM 35.6 °F 26.6 °F 26.6 °F 70% 30.59 in 10.0 mi North 13.8 mph - N/A   Clear
7:54 PM 35.6 °F 27.1 °F 26.6 °F 70% 30.59 in 10.0 mi North 12.7 mph - N/A   Clear
8:15 PM 35.6 °F 27.5 °F 26.6 °F 70% 30.59 in 10.0 mi North 11.5 mph - N/A   Scattered Clouds
8:34 PM 35.6 °F 28.6 °F 26.6 °F 70% 30.58 in 10.0 mi North 9.2 mph - N/A   Scattered Clouds
8:55 PM 33.8 °F 26.4 °F 26.6 °F 75% 30.58 in 10.0 mi North 9.2 mph - N/A   Mostly Cloudy
9:15 PM 33.8 °F 27.7 °F 26.6 °F 75% 30.58 in 10.0 mi North 6.9 mph - N/A   Mostly Cloudy
9:34 PM 33.8 °F 27.7 °F 26.6 °F 75% 30.58 in 10.0 mi North 6.9 mph - N/A   Mostly Cloudy
9:55 PM 33.8 °F 28.6 °F 26.6 °F 75% 30.57 in 10.0 mi North 5.8 mph - N/A   Mostly Cloudy
10:14 PM 30.2 °F 24.3 °F 26.6 °F 86% 30.57 in 10.0 mi North 5.8 mph - N/A   Scattered Clouds
10:35 PM 30.2 °F 26.7 °F 26.6 °F 86% 30.56 in 10.0 mi NNE 3.5 mph - N/A   Clear
10:55 PM 32.0 °F 25.6 °F 26.6 °F 80% 30.56 in 10.0 mi NE 6.9 mph - N/A   Clear
11:14 PM 32.0 °F 26.4 °F 26.6 °F 80% 30.55 in 10.0 mi NE 5.8 mph - N/A   Scattered Clouds
11:35 PM 30.2 °F 25.4 °F 26.6 °F 86% 30.55 in 10.0 mi NE 4.6 mph - N/A   Scattered Clouds
11:55 PM 32.0 °F 27.5 °F 26.6 °F 80% 30.55 in 10.0 mi NE 4.6 mph - N/A   Scattered Clouds